<?xml version='1.0' encoding='UTF-8'?>
<gpx xmlns="http://www.topografix.com/GPX/1/1" creator="www.balnam.be" version="1.1" xmlns:xsi="http://www.w3.org/2001/XMLSchema-instance" xsi:schemaLocation="http://www.topografix.com/GPX/1/1 http://www.topografix.com/GPX/1/1/gpx.xsd">
<trk>
<name>lrela11</name>
<cmt>s</cmt>
<desc>Lamine Chemin n°11 </desc>
<link href="https://chemins.be/lamine/chemin/11"/><trkseg>
<trkpt lat="50.690705" lon="5.343933"><time>2026-05-02T16:52:21Z</time></trkpt>
<trkpt lat="50.691437" lon="5.342405"><time>2026-05-02T17:02:21Z</time></trkpt>
</trkseg>
</trk>
<trk>
<name>lrela14</name>
<cmt>s</cmt>
<desc>Lamine Chemin n°14 </desc>
<link href="https://chemins.be/lamine/chemin/14"/><trkseg>
<trkpt lat="50.686793" lon="5.328187"><time>2026-05-02T16:52:21Z</time></trkpt>
<trkpt lat="50.686773" lon="5.326835"><time>2026-05-02T17:02:21Z</time></trkpt>
<trkpt lat="50.687269" lon="5.324507"><time>2026-05-02T17:12:21Z</time></trkpt>
<trkpt lat="50.686868" lon="5.323037"><time>2026-05-02T17:22:21Z</time></trkpt>
<trkpt lat="50.686338" lon="5.322168"><time>2026-05-02T17:32:21Z</time></trkpt>
<trkpt lat="50.686837" lon="5.319443"><time>2026-05-02T17:42:21Z</time></trkpt>
<trkpt lat="50.686824" lon="5.319153"><time>2026-05-02T17:52:21Z</time></trkpt>
</trkseg>
</trk>
<trk>
<name>lrela15</name>
<cmt>s</cmt>
<desc>Lamine Chemin n°15 </desc>
<link href="https://chemins.be/lamine/chemin/15"/><trkseg>
<trkpt lat="50.696193" lon="5.322415"><time>2026-05-02T16:52:21Z</time></trkpt>
<trkpt lat="50.695363" lon="5.318252"><time>2026-05-02T17:02:21Z</time></trkpt>
</trkseg>
</trk>
<trk>
<name>lrela16</name>
<cmt>r</cmt>
<desc>Lamine Sentier n°16 Rue Frenay</desc>
<link href="https://chemins.be/lamine/sentier/16"/><trkseg>
<trkpt lat="50.688723" lon="5.336326"><time>2026-05-02T16:52:21Z</time></trkpt>
<trkpt lat="50.689085" lon="5.336945"><time>2026-05-02T17:02:21Z</time></trkpt>
</trkseg></trk>
<trk>
<name>lrela16</name>
<cmt>v</cmt>
<desc>Lamine Sentier n°16 Rue Frenay</desc>
<link href="https://chemins.be/lamine/sentier/16"/><trkseg>
<trkpt lat="50.689085" lon="5.336945"><time>2026-05-02T17:02:21Z</time></trkpt>
<trkpt lat="50.689214" lon="5.337123"><time>2026-05-02T17:12:21Z</time></trkpt>
</trkseg></trk>
<trk>
<name>lrela16</name>
<cmt>q</cmt>
<desc>Lamine Sentier n°16 Rue Frenay</desc>
<link href="https://chemins.be/lamine/sentier/16"/><trkseg>
<trkpt lat="50.689214" lon="5.337123"><time>2026-05-02T17:12:21Z</time></trkpt>
<trkpt lat="50.689543" lon="5.337524"><time>2026-05-02T17:22:21Z</time></trkpt>
<trkpt lat="50.689904" lon="5.337760"><time>2026-05-02T17:32:21Z</time></trkpt>
</trkseg>
</trk>
<trk>
<name>lrela17</name>
<cmt>q</cmt>
<desc>Lamine Sentier n°17 </desc>
<link href="https://chemins.be/lamine/sentier/17"/><trkseg>
<trkpt lat="50.685719" lon="5.330064"><time>2026-05-02T16:52:21Z</time></trkpt>
<trkpt lat="50.684890" lon="5.329453"><time>2026-05-02T17:02:21Z</time></trkpt>
<trkpt lat="50.684115" lon="5.329099"><time>2026-05-02T17:12:21Z</time></trkpt>
</trkseg>
</trk>
<trk>
<name>lrela18</name>
<cmt>q</cmt>
<desc>Lamine Sentier n°18 </desc>
<link href="https://chemins.be/lamine/sentier/18"/><trkseg>
<trkpt lat="50.692941" lon="5.334361"><time>2026-05-02T16:52:21Z</time></trkpt>
<trkpt lat="50.691982" lon="5.328965"><time>2026-05-02T17:02:21Z</time></trkpt>
<trkpt lat="50.691547" lon="5.328106"><time>2026-05-02T17:12:21Z</time></trkpt>
<trkpt lat="50.690772" lon="5.327162"><time>2026-05-02T17:22:21Z</time></trkpt>
</trkseg>
</trk>
<trk>
<name>lrela19</name>
<cmt>s</cmt>
<desc>Lamine Sentier n°19 </desc>
<link href="https://chemins.be/lamine/sentier/19"/><trkseg>
<trkpt lat="50.685157" lon="5.348067"><time>2026-05-02T16:52:21Z</time></trkpt>
<trkpt lat="50.683725" lon="5.351021"><time>2026-05-02T17:02:21Z</time></trkpt>
<trkpt lat="50.682646" lon="5.354011"><time>2026-05-02T17:12:21Z</time></trkpt>
</trkseg>
</trk>
<trk>
<name>lrela20</name>
<cmt>q</cmt>
<desc>Lamine Sentier n°20 </desc>
<link href="https://chemins.be/lamine/sentier/20"/><trkseg>
<trkpt lat="50.688787" lon="5.337739"><time>2026-05-02T16:52:21Z</time></trkpt>
<trkpt lat="50.689358" lon="5.342889"><time>2026-05-02T17:02:21Z</time></trkpt>
<trkpt lat="50.689865" lon="5.345213"><time>2026-05-02T17:12:21Z</time></trkpt>
</trkseg>
</trk>
<trk>
<name>lrela21</name>
<cmt>q</cmt>
<desc>Lamine Sentier n°21 </desc>
<link href="https://chemins.be/lamine/sentier/21"/><trkseg>
<trkpt lat="50.691166" lon="5.338626"><time>2026-05-02T16:52:21Z</time></trkpt>
<trkpt lat="50.689770" lon="5.338140"><time>2026-05-02T17:02:21Z</time></trkpt>
<trkpt lat="50.688373" lon="5.337360"><time>2026-05-02T17:12:21Z</time></trkpt>
<trkpt lat="50.686299" lon="5.335822"><time>2026-05-02T17:22:21Z</time></trkpt>
<trkpt lat="50.685121" lon="5.335593"><time>2026-05-02T17:32:21Z</time></trkpt>
<trkpt lat="50.683897" lon="5.334592"><time>2026-05-02T17:42:21Z</time></trkpt>
<trkpt lat="50.683687" lon="5.334774"><time>2026-05-02T17:52:21Z</time></trkpt>
<trkpt lat="50.682504" lon="5.334082"><time>2026-05-02T18:02:21Z</time></trkpt>
</trkseg>
</trk>
<trk>
<name>lrela4</name>
<cmt>s</cmt>
<desc>Lamine Chemin n°4 </desc>
<link href="https://chemins.be/lamine/chemin/4"/><trkseg>
<trkpt lat="50.687604" lon="5.341845"><time>2026-05-02T16:52:21Z</time></trkpt>
<trkpt lat="50.685202" lon="5.348067"><time>2026-05-02T17:02:21Z</time></trkpt>
<trkpt lat="50.684241" lon="5.348668"><time>2026-05-02T17:12:21Z</time></trkpt>
<trkpt lat="50.682320" lon="5.350227"><time>2026-05-02T17:22:21Z</time></trkpt>
<trkpt lat="50.681409" lon="5.351908"><time>2026-05-02T17:32:21Z</time></trkpt>
</trkseg>
</trk>
<trk>
<name>lrela5</name>
<cmt>s</cmt>
<desc>Lamine Chemin n°5 </desc>
<link href="https://chemins.be/lamine/chemin/5"/><trkseg>
<trkpt lat="50.690601" lon="5.327318"><time>2026-05-02T16:52:21Z</time></trkpt>
<trkpt lat="50.692169" lon="5.324603"><time>2026-05-02T17:02:21Z</time></trkpt>
<trkpt lat="50.693814" lon="5.318102"><time>2026-05-02T17:12:21Z</time></trkpt>
</trkseg>
</trk>
<trk>
<name>lrela6</name>
<cmt>v</cmt>
<desc>Lamine Chemin n°6 Chemin de Lamine à Jeneffe</desc>
<link href="https://chemins.be/lamine/chemin/6"/><trkseg>
<trkpt lat="50.685596" lon="5.334334"><time>2026-05-02T16:52:21Z</time></trkpt>
<trkpt lat="50.684957" lon="5.335969"><time>2026-05-02T17:02:21Z</time></trkpt>
<trkpt lat="50.684237" lon="5.337381"><time>2026-05-02T17:12:21Z</time></trkpt>
<trkpt lat="50.683657" lon="5.339620"><time>2026-05-02T17:22:21Z</time></trkpt>
</trkseg></trk>
<trk>
<name>lrela6</name>
<cmt>s</cmt>
<desc>Lamine Chemin n°6 Chemin de Lamine à Jeneffe</desc>
<link href="https://chemins.be/lamine/chemin/6"/><trkseg>
<trkpt lat="50.683657" lon="5.339620"><time>2026-05-02T17:22:21Z</time></trkpt>
<trkpt lat="50.683095" lon="5.342488"><time>2026-05-02T17:32:21Z</time></trkpt>
<trkpt lat="50.679184" lon="5.345929"><time>2026-05-02T17:42:21Z</time></trkpt>
</trkseg>
</trk>
<trk>
<name>lrela7</name>
<cmt>s</cmt>
<desc>Lamine Chemin n°7 </desc>
<link href="https://chemins.be/lamine/chemin/7"/><trkseg>
<trkpt lat="50.680997" lon="5.340679"><time>2026-05-02T16:52:21Z</time></trkpt>
<trkpt lat="50.681268" lon="5.342581"><time>2026-05-02T17:02:21Z</time></trkpt>
<trkpt lat="50.682016" lon="5.344863"><time>2026-05-02T17:12:21Z</time></trkpt>
<trkpt lat="50.682438" lon="5.351758"><time>2026-05-02T17:22:21Z</time></trkpt>
<trkpt lat="50.682397" lon="5.352159"><time>2026-05-02T17:32:21Z</time></trkpt>
</trkseg>
</trk>
<trk>
<name>lrela9</name>
<cmt>s</cmt>
<desc>Lamine Chemin n°9 </desc>
<link href="https://chemins.be/lamine/chemin/9"/><trkseg>
<trkpt lat="50.686536" lon="5.341326"><time>2026-05-02T16:52:21Z</time></trkpt>
<trkpt lat="50.683056" lon="5.342499"><time>2026-05-02T17:02:21Z</time></trkpt>
</trkseg>
</trk>
<trk>
<name>lrelai1</name>
<cmt>v</cmt>
<desc>Lamine Chemin n°i1 </desc>
<link href="https://chemins.be/lamine/chemin/i1"/><trkseg>
<trkpt lat="50.686413" lon="5.319164"><time>2026-05-02T16:52:21Z</time></trkpt>
<trkpt lat="50.687460" lon="5.319722"><time>2026-05-02T17:02:21Z</time></trkpt>
<trkpt lat="50.686671" lon="5.325816"><time>2026-05-02T17:12:21Z</time></trkpt>
</trkseg>
</trk>
</gpx>